Regional Weather Roundup
Issued by NWS

Home | Current Version | Previous Version | Text Only | Print | Product List | Glossary Off
Versions: 1 2 3 4 5 6 7 8 9 10 11 12 13 14 15 16 17 18 19 20 21 22 23 24 25 26 27 28 29 30 31 32 33 34 35 36 37 38 39 40 41 42 43 44 45 46 47 48 49 50

000
ASUS43 KMKX 272121
RWRWI

WISCONSIN REGIONAL WEATHER ROUNDUP
NATIONAL WEATHER SERVICE MILWAUKEE/SULLIVAN WI
400 PM CDT MON JUL 27 2015

NOTE: "FAIR" INDICATES FEW OR NO CLOUDS BELOW 12,000 FEET WITH NO
SIGNIFICANT WEATHER AND/OR OBSTRUCTIONS TO VISIBILITY.

WIZ001-002-006>008-014>016-023>028-272200-
NORTHWEST WISCONSIN

CITY           SKY/WX    TMP DP  RH WIND       PRES   REMARKS
SUPERIOR ARPT  MOSUNNY   84  69  60 NE10      29.94S HX  88
ASHLAND        SUNNY     89  56  32 S9        29.96F HX  87
HAYWARD        SUNNY     86  57  37 S8        29.99F HX  85
SIREN          MOSUNNY   86  65  48 S9        29.96S HX  87
CUMBERLAND     MOSUNNY   81  66  61 SE8       29.98S HX  83
RICE LAKE      MOSUNNY   83  67  59 SE12G17   29.99S HX  85
CHETEK         MOSUNNY   83  67  58 SE10G17   29.97F HX  86
LADYSMITH      SUNNY     85  59  41 SE10      30.02F HX  84
EAU CLAIRE     MOSUNNY   84  65  52 SE15      29.96F HX  86
MENOMONIE      PTSUNNY   85  67  56 SE12      29.97S HX  87
NEW RICHMOND   CLOUDY    82  68  62 SE8       29.96S HX  85
OSCEOLA        CLOUDY    83  70  63 SE10      29.98S HX  87
$$

WIZ003>005-009-010-017-018-272200-
NORTH CENTRAL WISCONSIN

CITY           SKY/WX    TMP DP  RH WIND       PRES   REMARKS
MANITOWISH WTR SUNNY     85  57  37 S10       30.03F HX  84
ARBOR VITAE    SUNNY     85  53  33 S9        30.04S HX  83
WOODRUFF       SUNNY     85  53  33 S9        30.04S HX  83
RHINELANDER    SUNNY     87  56  34 S10G20    30.05F HX  85
EAGLE RIVER    SUNNY     87  49  26 S8        30.04F HX  84
LAND O LAKES   SUNNY     89  47  23 S6        30.05F HX  86
PHILLIPS       MOSUNNY   86  57  37 S12       30.01F HX  85
TOMAHAWK       SUNNY     86  56  35 S3        30.04F HX  84
MEDFORD        SUNNY     82  65  57 S10       30.03F HX  84
MERRILL        NOT AVBL
$$

WIZ029-030-035-036-043>047-272200-
CENTRAL WISCONSIN

CITY           SKY/WX    TMP DP  RH WIND       PRES   REMARKS
WAUSAU         MOSUNNY   87  61  41 SE12      30.01F HX  87
MOSINEE        SUNNY     82  63  51 S5        30.04S HX  83
MARSHFIELD     MOSUNNY   85  61  44 S10       30.02F HX  85
STEVENS POINT  PTSUNNY   83  61  45 SE8       30.03S HX  84
WAUPACA        PTSUNNY   89  61  39 SE8       30.02F HX  88
WAUTOMA        MOSUNNY   88  60  38 S13       30.01F HX  87
WISC RAPIDS    PTSUNNY   88  60  38 SE9       30.02F HX  87
CAMP DOUGLAS   PTSUNNY   86  68  54 SE8       29.99F HX  89
$$

WIZ011>013-019>022-031-037>040-048>050-272200-
NORTHEAST WISCONSIN

CITY           SKY/WX    TMP DP  RH WIND       PRES   REMARKS
ANTIGO         SUNNY     84  61  46 S9        30.06F HX  84
SHAWANO        MOSUNNY   88  60  39 SE7       30.03F HX  88
OCONTO         SUNNY     86  61  42 S8        30.02S HX  86
STURGEON BAY   SUNNY     84  59  42 MISG      30.05S HX  84
GREEN BAY      MOSUNNY   85  63  47 S7        30.02F HX  86
MANITOWOC      MOSUNNY   83  64  52 MISG      30.04F HX  84
APPLETON       MOSUNNY   84  57  39 SE8       30.03F HX  83
CLINTONVILLE   PTSUNNY   86  59  39 S8        30.03S HX  85
OSHKOSH        PTSUNNY   86  62  44 SE12      30.02F HX  86
$$

WIZ032>034-041-042-053>061-272200-
SOUTHWEST WISCONSIN

CITY           SKY/WX    TMP DP  RH WIND       PRES   REMARKS
LA CROSSE      MOSUNNY   86  68  54 SE8       29.95F HX  89
SPARTA         PTSUNNY   88  63  42 SE8       29.98F HX  89
VIROQUA        PTSUNNY   84  69  61 E10       30.00F HX  87
BOSCOBEL       PTSUNNY   88  68  51 SE6       29.97F HX  91
PRAIRIE DU CHI PTSUNNY   86  65  49 SE8       29.96F HX  88
PLATTEVILLE    CLOUDY    83  68  59 S7        30.00S HX  87
$$

WIZ056-057-062-063-064-067-068-272200-
SOUTH CENTRAL WISCONSIN

CITY           SKY/WX    TMP DP  RH WIND       PRES   REMARKS
REEDSBURG      SUNNY     87  66  49 E5        29.99F HX  89
BARABOO/DELLS  SUNNY     87  60  40 SE7       30.00F HX  87
LONE ROCK      MOSUNNY   86  65  49 SE8       29.99F HX  88
MINERAL POINT  MOSUNNY   88  64  45 SE8       30.01S HX  89
MADISON        PTSUNNY   85  66  53 E8        30.00F HX  87
MIDDLETON      SUNNY     87  65  48 SE9       30.01S HX  88
WATERTOWN      MOSUNNY   84  64  49 SE8       30.01F HX  85
MONROE         MOSUNNY   86  66  51 SE5       30.00F HX  88
JANESVILLE     MOSUNNY   90  63  40 E12       30.00S HX  90
$$

WIZ051-052-058>065-066-070>072-272200-
SOUTHEAST WISCONSIN

CITY           SKY/WX    TMP DP  RH WIND       PRES   REMARKS
MILWAUKEE      PTSUNNY   83  61  47 E9        30.02F HX  83
WAUKESHA       SUNNY     82  57  42 E14       30.03F HX  82
MILWAUKEE/TIMM NOT AVBL
RACINE         SUNNY     82  62  50 E7        30.04F HX  83
BURLINGTON     MOSUNNY   84  60  44 E9        30.02S HX  84
KENOSHA        MOSUNNY   83  64  52 E9        30.03F HX  84
FOND DU LAC    MOSUNNY   86  63  45 SE8       30.02F HX  87
SHEBOYGAN      MOSUNNY   82  63  52 S6        30.04F HX  83
WEST BEND      MOSUNNY   82  57  42 CALM      30.04S HX  82
JUNEAU           N/A     83  62  48 SE6       30.04S HX  84
$$

LSZ147-162-272200-
LAKE SUPERIOR

STATION/POSITION TIME  TEMP    WIND        PRES    WAVE
                       AIR SEA DIR/SP/G            HT/PER
                 (UTC) (F)     (DEG/KT/KT) (MB)    (FT/S)
W MID LAKE BUOY  2050   72 66     CALM     1014.6F   0
DEVILS ISLAND    2100   76      60/ 10/ 11 1014.2F
PORT WING        2040   78      30/ 11/ 14 1014.2F
SAXON HARBOR     1900   78                 1014.9
$$

LMZ867-665-643>646-272200-
LAKE MICHIGAN

STATION/POSITION TIME  TEMP    WIND        PRES    WAVE
                       AIR SEA DIR/SP/G            HT/PER
                 (UTC) (F)     (DEG/KT/KT) (MB)    (FT/S)
CHAMBERS ISLAND  2000   87     200/  3/  8 1016.3F
N MID LAKE BUOY  2050   73 71  210/  6/  8 1016.7F   0
NORTHPORT PIER   2000   82     140/  4/  4 1016.9R
SISTER BAY       2044   90     300/  7/  8   N/A
ALGOMA LAKESHORE 2027          220/  7/  8   N/A
KEWAUNEE LAKESHO 2100   72     170/  5/  6 1016.7F
SHEBOYGAN LAKESH 2100   75     120/  5/  5 1017.2F
PORT WASHINGTON  2040   78      50/  3/  4 1017.6F
ATWATER BUOY     2100   75      50/  2/  4 1018.3F
MILWAUKEE LAKESH 2100   73      50/  5/  6   N/A
KENOSHA   LAKESH 2100   76      60/  4/  5 1016.3F
$$

TC  - TEMPERATURE IN CELSIUS
VSB - VISIBILITY IN STATUTE MILES
WCI - WIND CHILL INDEX
HX  - HEAT INDEX



USA.gov is the U.S. government's official web portal to all federal, state and local government web resources and services.